sat.trackr.live / text

‹ back to catalog

STARLINK-6077

NORAD 56097 · 2023-046E

PAYLOAD ACTIVE UNKNOWN

§ Identity

Operator
Country
US
Launch date
2023-03-29
Launch site
AFETR
Launch vehicle
Mass (kg)
RCS (m²)

Purposes: comms

External: N2YO · Heavens-Above · Gunter

§ Orbital elements

Epoch: 2026-05-25T02:44:21.778080Z

Period
94.27 min
Inclination
43.0059°
Eccentricity
0.0001537
Mean motion
15.27532969 rev/d
Perigee alt
482.1 km
Apogee alt
484.2 km
Semi-major
6,861.3 km
B*
4.3134e-4
RAAN
42.6774°
Arg perigee
236.9065°
Mean anomaly
123.1639°
Rev number
17,426

§ Raw data

STARLINK-60771 56097U 23046E   26145.11414095  .00011609  00000+0  43134-3 0  99992 56097  43.0059  42.6774 0001537 236.9065 123.1639 15.27532969174261

JSON: /api/v1/satellites/56097 · /tle

For live sub-satellite position, see the globe view (requires WebGL).

§ Visibility from observer

Set your observer location to see the next 7 days of passes ≥ 10°. The values pass through the URL so the page stays shareable.

No JS? Fill the form by hand. The geolocation button needs JavaScript.